Flag for USA

Past Weather in 39°49'58"N, 104°57'25"W, USA — Yesterday and Last 2 Weeks

Now
41 °F

Passing clouds.


Feels Like: 34 °F
Forecast: 68 / 42 °F
Wind: 12 mph from South

Location: Buckley Air Force Base

Current Time: Apr 8, 2020 at 7:07:12 am

Latest Report: Apr 8, 2020 at 5:58 am


Visibility: 10 mi

Pressure: 29.93 "Hg

Humidity: 39%

Dew Point: 18 °F

Location of 39°49'58"N, 104°57'25"WLocation

Past Weather in 39°49'58"N, 104°57'25"W — Graph

°F

39°49'58"N, 104°57'25"W Temperature Yesterday

Maximum temperature yesterday: 73 °F (at 3:58 pm)
Minimum temperature yesterday: 42 °F (at 2:58 am)
Average temperature yesterday: 57 °F

High & Low Weather Summary for the Past Weeks

 TemperatureHumidityPressure
High73 °F (Apr 7, 3:58 pm)100% (Mar 27, 4:34 am)30.28 "Hg (Mar 27, 4:34 am)
Low16 °F (Apr 3, 1:58 am)9% (Apr 6, 4:58 pm)29.48 "Hg (Apr 1, 3:58 pm)
Average43 °F53%29.82 "Hg
* Reported Mar 24 5:58 am — Apr 8 5:58 am, 39°49'58"N, 104°57'25"W. Weather by CustomWeather, © 2020

Note: Actual official high and low records may vary slightly from our data, if they occured in-between our weather recording intervals... More about our weather records

39°49'58"N, 104°57'25"W Weather History for the Previous 24 Hours

Scroll right to see more
 ConditionsComfort  
Time TempWeatherWind HumidityBarometerVisibility
5:58 am
Wed, Apr 8
41 °FPassing clouds.12 mph39%29.93 "Hg10 mi
4:58 am40 °FPassing clouds.9 mph44%29.89 "Hg10 mi
3:58 am38 °FClear.8 mph51%29.90 "Hg10 mi
2:58 am42 °FClear.7 mph39%29.88 "Hg10 mi
1:58 am44 °FPassing clouds.6 mph36%29.89 "Hg10 mi
12:58 am47 °FPassing clouds.3 mph31%29.86 "Hg10 mi
11:58 pm
Tue, Apr 7
51 °FPassing clouds.7 mph25%29.84 "Hg10 mi
10:58 pm50 °FPassing clouds.6 mph27%29.85 "Hg10 mi
9:58 pm54 °FPassing clouds.7 mph22%29.83 "Hg10 mi
8:58 pm59 °FPassing clouds.3 mph16%29.81 "Hg10 mi
7:58 pm59 °FPassing clouds.7 mph16%29.81 "Hg10 mi
6:58 pm64 °FScattered clouds.9 mph18%29.80 "Hg10 mi
5:58 pm66 °FScattered clouds.12 mph16%29.79 "Hg10 mi
4:58 pm71 °FScattered clouds.10 mph11%29.77 "Hg10 mi
3:58 pm73 °FPassing clouds.10 mph10%29.76 "Hg10 mi
2:58 pm71 °FPassing clouds.7 mph10%29.78 "Hg10 mi
1:58 pm71 °FPassing clouds.3 mph11%29.81 "Hg10 mi
12:58 pm69 °FPassing clouds.No wind11%29.81 "Hg10 mi
11:58 am67 °FPassing clouds.No wind11%29.85 "Hg10 mi
10:58 am65 °FPassing clouds.5 mph13%29.85 "Hg10 mi
9:58 am63 °FPassing clouds.6 mph15%29.87 "Hg10 mi
8:58 am60 °FPassing clouds.8 mph19%29.84 "Hg10 mi
7:58 am51 °FPassing clouds.10 mph31%29.87 "Hg10 mi
Weather by CustomWeather, © 2020

See weather overview

Advertising